This is the latest recevied weather packets stored in our database for station/object ALAKES. If no packets are shown the sender has not sent any weather packets the latest 10 day(s).
| Time | Temp. | Humidity | Pressure | Rain* | Wind** | Luminosity | Snow |
|---|---|---|---|---|---|---|---|
| 1788025474 | 6.11° C | 71% | - | 0 mm | - | - | - |
| 1788024849 | 6.11° C | 71% | - | 0 mm | - | - | - |
| 1788024215 | 5.56° C | 71% | - | 0 mm | - | - | - |
| 1788023597 | 5.56° C | 74% | - | 0 mm | - | - | - |
| 1788022975 | 5.56° C | 76% | - | 0 mm | - | - | - |
| 1788022345 | 355.56° C | - | - | - | - | - | - |
| 1788021725 | 5° C | 78% | - | 0 mm | - | - | - |
| 1788021099 | 5.56° C | 76% | - | 0 mm | - | - | - |
| 1788020475 | 5.56° C | 77% | - | 0 mm | - | - | - |
| 1788019855 | 5° C | 77% | - | 0 mm | - | - | - |
| 1788019233 | 5° C | 75% | - | 0 mm | - | - | - |
| 1788018605 | 5° C | 78% | - | 0 mm | - | - | - |
| 1788017983 | 5° C | 78% | - | 0 mm | - | - | - |
| 1788017361 | 4.44° C | 77% | - | 0 mm | - | - | - |
| 1788016733 | 4.44° C | 78% | - | 0 mm | - | - | - |
| 1788016109 | 4.44° C | 79% | - | 0 mm | - | - | - |
| 1788015480 | 3.89° C | 82% | - | 0 mm | - | - | - |
| 1788014858 | 3.89° C | 83% | - | 0 mm | - | - | - |
| 1788014240 | 3.33° C | 83% | - | 0 mm | - | - | - |
| 1788013610 | 3.89° C | 81% | - | 0 mm | - | - | - |
| 1788012974 | 2.78° C | 83% | - | 0 mm | - | - | - |
| 1788012344 | 2.22° C | 88% | - | 0 mm | - | - | - |
| 1788011712 | 2.22° C | 88% | - | 0 mm | - | - | - |
| 1788011088 | 2.22° C | 87% | - | 0 mm | - | - | - |
| 1788010460 | 2.22° C | 86% | - | 0 mm | - | - | - |
* Rain latest 24 hours (hover to see other rain measurements)
** Current wind speed in m/s (hover to see current wind gust speed)